N7NKE Weather Reports


Display with metric or nautical units.
time (UTC)temp
F
wind
direction
speed
MPH
gust
MPH
rain 1hr
in
rain 24hr
in
rain mn
in
humidity
%
barometer
mb
20211130055504 54 176 1.0 3.0 0.00 0.07 0.06 94 1024.1
20211130055004 54 163 2.0 3.0 0.00 0.07 0.06 94 1024.0
20211130054504 53 244 1.0 2.0 0.00 0.07 0.06 94 1024.1
20211130054006 53 244 1.0 1.0 0.00 0.07 0.06 94 1024.3
20211130053504 53 244 1.0 2.0 0.00 0.07 0.06 94 1024.4
20211130053005 53 244 1.0 3.0 0.00 0.07 0.06 94 1024.5
20211130052504 53 182 1.0 2.0 0.00 0.07 0.06 94 1024.2
20211130052005 53 182 1.0 2.0 0.00 0.07 0.06 94 1024.0
20211130051504 53 182 0.0 1.0 0.00 0.07 0.06 94 1023.8
20211130051005 53 182 0.0 1.0 0.00 0.07 0.06 94 1023.8
20211130050504 53 182 1.0 2.0 0.00 0.07 0.06 94 1023.8
20211130050004 53 182 1.0 2.0 0.00 0.07 0.06 94 1023.8
20211130045504 53 182 1.0 2.0 0.00 0.07 0.06 94 1024.0
20211130045005 53 182 1.0 2.0 0.00 0.07 0.06 94 1024.2
20211130044505 53 182 1.0 2.0 0.00 0.07 0.06 94 1024.2
20211130044005 53 150 0.0 1.0 0.00 0.07 0.06 94 1024.2
20211130043504 53 150 1.0 2.0 0.00 0.07 0.06 94 1024.3
20211130043005 53 247 0.0 0.0 0.00 0.07 0.06 94 1024.3
20211130042504 53 247 0.0 1.0 0.00 0.07 0.06 94 1024.4
20211130042004 54 247 1.0 2.0 0.00 0.07 0.06 94 1024.2
20211130041504 53 208 1.0 2.0 0.00 0.07 0.06 94 1024.3
20211130041005 53 133 1.0 2.0 0.00 0.07 0.06 94 1024.3
20211130040505 54 133 0.0 1.0 0.00 0.07 0.06 94 1024.4
20211130040004 54 133 1.0 2.0 0.00 0.07 0.06 94 1024.4
20211130035504 54 133 0.0 1.0 0.00 0.07 0.06 94 1024.3
20211130035005 54 133 2.0 3.0 0.00 0.07 0.06 94 1024.3
20211130034504 53 123 1.0 3.0 0.00 0.07 0.06 94 1024.3
20211130034005 53 183 2.0 3.0 0.00 0.07 0.06 94 1024.3
20211130033504 53 161 2.0 3.0 0.00 0.07 0.06 94 1024.4
20211130033005 53 198 1.0 2.0 0.00 0.07 0.06 94 1024.4
20211130032504 53 198 1.0 2.0 0.00 0.07 0.06 94 1024.5
20211130032005 53 198 1.0 2.0 0.00 0.07 0.06 94 1024.6
20211130031504 53 198 0.0 2.0 0.00 0.07 0.06 94 1024.6
20211130031005 53 198 1.0 2.0 0.00 0.07 0.06 94 1024.6
20211130030504 53 198 0.0 1.0 0.00 0.07 0.06 94 1024.6
20211130030004 53 198 0.0 1.0 0.00 0.07 0.06 94 1024.7
20211130025504 53 198 0.0 1.0 0.00 0.07 0.06 94 1024.6
20211130025005 53 198 1.0 2.0 0.00 0.07 0.06 93 1024.6
20211130024504 53 198 2.0 3.0 0.00 0.07 0.06 93 1024.5
20211130024005 53 198 2.0 3.0 0.00 0.07 0.06 93 1024.5
20211130023504 53 206 1.0 3.0 0.00 0.07 0.06 93 1024.6
20211130023005 54 192 1.0 3.0 0.00 0.07 0.06 93 1024.7
20211130022504 54 203 2.0 3.0 0.00 0.07 0.06 93 1024.6
20211130022005 54 171 3.0 3.0 0.00 0.07 0.06 93 1024.5
20211130021504 54 180 2.0 3.0 0.00 0.07 0.06 93 1024.6
20211130021005 54 178 0.0 1.0 0.00 0.07 0.06 93 1024.7
20211130020504 54 178 0.0 0.0 0.00 0.07 0.06 93 1024.8
20211130020004 55 178 0.0 1.0 0.00 0.07 0.06 93 1024.7
20211130015504 55 178 1.0 2.0 0.00 0.07 0.06 93 1024.7
20211130015004 55 176 2.0 3.0 0.00 0.07 0.06 93 1024.6
20211130014504 55 185 2.0 3.0 0.00 0.07 0.06 93 1024.6
20211130014005 55 191 2.0 3.0 0.00 0.07 0.06 93 1024.8
20211130013504 55 213 1.0 2.0 0.00 0.07 0.06 93 1024.9
20211130013005 55 213 1.0 2.0 0.00 0.07 0.06 93 1024.9
20211130012504 55 213 1.0 3.0 0.00 0.07 0.06 93 1024.9
20211130012004 55 190 2.0 3.0 0.00 0.07 0.06 93 1025.0
20211130011505 55 190 0.0 1.0 0.00 0.07 0.06 93 1025.0
20211130011005 55 190 1.0 2.0 0.00 0.07 0.06 93 1024.9
20211130010504 55 190 1.0 2.0 0.00 0.07 0.06 93 1024.9
20211130010004 55 190 0.0 1.0 0.00 0.07 0.06 93 1025.0
20211130005504 55 190 0.0 1.0 0.00 0.07 0.06 93 1025.1
20211130005005 55 190 1.0 1.0 0.00 0.07 0.06 93 1025.1
20211130004504 55 190 0.0 1.0 0.00 0.07 0.06 93 1025.1
20211130004005 55 190 0.0 0.0 0.00 0.07 0.06 93 1025.1
20211130003503 55 190 0.0 1.0 0.00 0.07 0.06 93 1025.1
20211130003005 55 190 0.0 1.0 0.00 0.07 0.06 92 1025.1
20211130002504 55 190 0.0 0.0 0.00 0.07 0.06 92 1025.1
20211130002005 55 190 0.0 1.0 0.00 0.07 0.06 92 1025.3
20211130001504 55 190 0.0 1.0 0.00 0.07 0.06 92 1025.2
20211130001005 56 190 0.0 1.0 0.00 0.07 0.06 92 1025.1
20211130000504 56 190 0.0 1.0 0.00 0.07 0.06 92 1025.1
20211130000004 56 190 0.0 1.0 0.00 0.07 0.06 92 1025.1
20211129235504 56 190 0.0 0.0 0.00 0.07 0.06 92 1025.1
20211129235005 56 190 0.0 1.0 0.00 0.07 0.06 92 1025.1
20211129234504 56 190 0.0 1.0 0.00 0.07 0.06 92 1025.0
20211129234004 56 190 0.0 2.0 0.00 0.07 0.06 92 1025.0
20211129233504 56 190 1.0 2.0 0.00 0.07 0.06 92 1025.1
20211129233005 56 190 1.0 2.0 0.00 0.07 0.06 92 1025.1
20211129232504 56 190 1.0 2.0 0.00 0.07 0.06 92 1025.0
20211129232005 56 175 1.0 3.0 0.00 0.07 0.06 92 1025.1
20211129231504 56 208 1.0 3.0 0.00 0.07 0.06 92 1025.2
20211129231005 56 158 2.0 3.0 0.00 0.07 0.06 92 1025.1
20211129230504 56 177 1.0 3.0 0.00 0.07 0.06 91 1025.1
20211129230004 56 147 2.0 3.0 0.00 0.07 0.06 91 1025.1
20211129225504 56 155 1.0 3.0 0.00 0.07 0.06 91 1025.1
20211129225005 56 164 2.0 3.0 0.00 0.07 0.06 91 1025.2
20211129224504 56 210 1.0 3.0 0.00 0.07 0.06 91 1025.1
20211129224005 56 160 1.0 3.0 0.00 0.07 0.06 91 1025.1
20211129223503 56 195 2.0 3.0 0.00 0.07 0.06 91 1025.1
20211129223005 56 185 2.0 3.0 0.00 0.07 0.06 91 1025.0
20211129222504 56 200 2.0 3.0 0.00 0.07 0.06 91 1025.1
20211129222005 56 198 2.0 3.0 0.00 0.07 0.06 91 1025.1
20211129221504 56 185 3.0 5.0 0.00 0.07 0.06 91 1025.0
20211129221004 56 203 2.0 3.0 0.00 0.07 0.06 91 1025.0
20211129220504 56 153 2.0 3.0 0.00 0.07 0.06 91 1025.0
20211129220004 56 141 3.0 5.0 0.00 0.07 0.06 91 1025.0
20211129215504 56 161 2.0 5.0 0.00 0.07 0.06 91 1024.9
20211129215005 56 169 5.0 8.0 0.00 0.07 0.06 91 1025.1
20211129214503 56 195 2.0 5.0 0.00 0.07 0.06 91 1025.1
20211129214005 56 160 4.0 7.0 0.00 0.07 0.06 91 1025.1
20211129213504 56 153 5.0 8.0 0.00 0.07 0.06 91 1025.2
20211129213005 56 160 5.0 8.0 0.00 0.07 0.06 91 1025.3
20211129212503 56 141 3.0 9.0 0.00 0.07 0.06 91 1025.2
20211129212005 56 170 5.0 9.0 0.00 0.07 0.06 91 1025.2
20211129211504 56 155 6.0 9.0 0.00 0.07 0.06 91 1025.2
20211129211004 56 173 3.0 7.0 0.00 0.07 0.06 92 1025.2
20211129210504 55 162 3.0 5.0 0.00 0.07 0.06 92 1025.2
20211129210004 55 136 3.0 7.0 0.00 0.07 0.06 92 1025.1
20211129205504 55 138 3.0 8.0 0.00 0.07 0.06 92 1025.1
20211129205004 55 164 4.0 9.0 0.00 0.07 0.06 92 1025.2
20211129204504 55 182 2.0 8.0 0.00 0.07 0.06 92 1025.1
20211129204006 55 149 2.0 5.0 0.00 0.07 0.06 92 1025.2
20211129203504 55 169 2.0 3.0 0.00 0.07 0.06 92 1025.2
20211129203005 55 161 2.0 6.0 0.00 0.07 0.06 92 1025.2
20211129202503 55 157 4.0 7.0 0.00 0.07 0.06 93 1025.2
20211129202004 55 164 3.0 5.0 0.00 0.07 0.06 93 1025.2
20211129201504 55 134 2.0 3.0 0.00 0.07 0.06 93 1025.2
20211129201005 55 138 3.0 6.0 0.00 0.07 0.06 93 1025.2
20211129200504 55 122 3.0 6.0 0.00 0.07 0.06 93 1025.3
20211129200004 55 113 2.0 5.0 0.00 0.07 0.06 93 1025.3
20211129195504 55 131 4.0 7.0 0.00 0.07 0.06 93 1025.3
20211129195004 55 121 3.0 6.0 0.00 0.07 0.06 93 1025.4
20211129194504 55 127 3.0 3.0 0.00 0.07 0.06 93 1025.5
20211129194004 55 128 3.0 8.0 0.00 0.07 0.06 93 1025.5
20211129193504 55 131 2.0 5.0 0.00 0.07 0.06 93 1025.6
20211129193005 55 119 3.0 6.0 0.00 0.07 0.06 94 1025.7
20211129192504 55 145 3.0 6.0 0.00 0.07 0.06 94 1025.7
20211129192005 55 145 3.0 5.0 0.00 0.07 0.06 94 1025.6
20211129191505 55 155 4.0 5.0 0.00 0.07 0.06 94 1025.7
20211129191004 55 151 3.0 5.0 0.00 0.07 0.06 94 1025.6
20211129190504 54 141 2.0 5.0 0.00 0.07 0.06 94 1025.8
20211129190004 54 167 4.0 6.0 0.00 0.07 0.06 94 1025.7
20211129185504 54 151 2.0 6.0 0.00 0.07 0.06 94 1025.9
20211129185005 54 156 3.0 6.0 0.00 0.07 0.06 94 1025.8
20211129184504 54 139 2.0 7.0 0.00 0.07 0.06 94 1025.9
20211129184004 54 150 5.0 9.0 0.00 0.07 0.06 94 1025.9
20211129183504 54 154 4.0 7.0 0.00 0.07 0.06 94 1025.7
20211129183005 54 184 4.0 8.0 0.00 0.07 0.06 94 1025.8
20211129182503 54 202 2.0 5.0 0.00 0.07 0.06 94 1025.7
20211129182005 53 220 2.0 6.0 0.00 0.07 0.06 94 1025.7
20211129181504 53 209 2.0 5.0 0.00 0.07 0.06 94 1025.8
20211129181008 53 199 3.0 6.0 0.00 0.07 0.06 94 1025.6
20211129180504 53 179 3.0 6.0 0.00 0.07 0.06 94 1025.6
20211129180004 53 183 5.0 9.0 0.00 0.07 0.06 94 1025.6
20211129175504 53 169 2.0 3.0 0.00 0.07 0.06 94 1025.5
20211129175004 53 179 4.0 10.0 0.00 0.07 0.06 94 1025.4
20211129174504 53 189 3.0 6.0 0.00 0.07 0.06 94 1025.3
20211129174005 53 213 5.0 7.0 0.00 0.07 0.06 94 1025.2
20211129173504 53 226 3.0 6.0 0.00 0.07 0.06 94 1025.1
20211129173004 53 200 3.0 5.0 0.00 0.07 0.06 94 1025.0
20211129172504 53 201 2.0 3.0 0.00 0.07 0.06 94 1024.9
20211129172004 53 210 1.0 5.0 0.00 0.07 0.06 94 1024.9
20211129171504 53 187 3.0 6.0 0.00 0.07 0.06 94 1024.7
20211129171004 53 204 3.0 6.0 0.00 0.07 0.06 94 1024.7
20211129170504 53 198 2.0 5.0 0.00 0.07 0.06 94 1024.5
20211129170004 53 199 3.0 7.0 0.00 0.07 0.06 94 1024.4
20211129165504 53 202 5.0 7.0 0.00 0.07 0.06 94 1024.3
20211129165005 53 192 4.0 7.0 0.00 0.07 0.06 94 1024.1
20211129164503 53 171 4.0 6.0 0.00 0.07 0.06 94 1024.1
20211129164005 53 176 4.0 7.0 0.00 0.07 0.06 94 1024.1
20211129163504 53 181 3.0 9.0 0.00 0.07 0.06 94 1023.9
20211129163004 53 194 3.0 15.0 0.00 0.07 0.06 94 1023.9
20211129162504 53 201 15.0 15.0 0.00 0.07 0.06 94 1023.8
20211129162005 53 170 15.0 15.0 0.00 0.07 0.06 94 1023.7
20211129161504 53 166 6.0 12.0 0.00 0.07 0.06 94 1023.7
20211129161005 53 174 7.0 9.0 0.00 0.07 0.06 94 1023.7
20211129160504 53 177 7.0 12.0 0.00 0.07 0.06 94 1023.7
20211129160004 53 194 6.0 10.0 0.00 0.07 0.06 94 1023.6
20211129155505 53 199 5.0 10.0 0.00 0.07 0.06 94 1023.6
20211129155004 53 164 4.0 7.0 0.00 0.07 0.06 94 1023.6
20211129154504 53 193 4.0 7.0 0.00 0.07 0.06 94 1023.8
20211129154005 53 207 5.0 9.0 0.00 0.07 0.06 94 1023.7
20211129153505 53 188 5.0 9.0 0.00 0.07 0.06 94 1023.8
20211129153006 53 196 4.0 6.0 0.00 0.07 0.06 94 1023.7
20211129152505 53 161 3.0 8.0 0.00 0.07 0.06 94 1023.7
20211129152006 53 211 3.0 8.0 0.00 0.07 0.06 93 1023.7
20211129151506 53 210 5.0 8.0 0.00 0.07 0.06 94 1023.5
20211129151006 53 207 2.0 9.0 0.00 0.07 0.06 94 1023.1
20211129150505 53 151 7.0 12.0 0.00 0.07 0.06 94 1023.0
20211129150006 53 154 5.0 12.0 0.00 0.07 0.06 93 1023.7
20211129145505 53 123 1.0 2.0 0.00 0.07 0.06 94 1024.3
20211129145006 53 206 1.0 3.0 0.00 0.07 0.06 94 1024.5
20211129144505 53 196 3.0 5.0 0.00 0.07 0.06 94 1024.4
20211129144006 53 185 3.0 5.0 0.00 0.07 0.06 94 1024.5
20211129143505 53 208 2.0 3.0 0.00 0.07 0.06 94 1024.8
20211129143005 53 227 1.0 2.0 0.00 0.07 0.06 94 1024.8
20211129142505 53 258 2.0 3.0 0.00 0.07 0.06 94 1024.7
20211129142006 53 211 3.0 8.0 0.00 0.07 0.06 94 1024.3
20211129141505 53 193 4.0 8.0 0.00 0.07 0.06 94 1024.0
20211129141005 53 261 2.0 3.0 0.00 0.07 0.06 94 1024.1
20211129140505 53 327 1.0 8.0 0.00 0.07 0.06 94 1023.7
20211129140005 53 155 6.0 10.0 0.00 0.07 0.06 94 1023.0
20211129135504 53 190 5.0 8.0 0.00 0.07 0.06 94 1023.2
20211129135006 53 194 3.0 7.0 0.00 0.07 0.06 94 1023.3
20211129134505 53 209 5.0 8.0 0.00 0.07 0.06 94 1023.4
20211129134006 53 187 5.0 7.0 0.00 0.07 0.06 94 1023.5
20211129133505 53 205 3.0 6.0 0.00 0.07 0.06 94 1023.8
20211129133006 53 195 3.0 9.0 0.00 0.07 0.06 94 1023.4
20211129132505 53 184 4.0 9.0 0.00 0.07 0.06 94 1023.3
20211129132005 53 228 0.0 5.0 0.00 0.07 0.06 94 1023.4
20211129131505 53 238 3.0 5.0 0.00 0.07 0.06 94 1023.3
20211129131006 53 167 2.0 9.0 0.00 0.07 0.06 94 1023.1
20211129130505 53 152 2.0 6.0 0.00 0.07 0.06 94 1023.1
20211129130005 53 126 0.0 2.0 0.00 0.07 0.06 94 1023.4
20211129125505 53 178 0.0 5.0 0.00 0.07 0.06 94 1023.2
20211129125006 53 157 5.0 7.0 0.00 0.07 0.06 94 1022.9
20211129124505 53 176 3.0 9.0 0.00 0.07 0.06 94 1022.8
20211129124005 53 178 5.0 9.0 0.00 0.07 0.06 94 1022.9
20211129123505 53 203 5.0 7.0 0.00 0.07 0.06 94 1022.7
20211129123005 53 193 5.0 8.0 0.00 0.07 0.06 94 1022.6
20211129122505 53 203 3.0 5.0 0.00 0.07 0.06 94 1022.7
20211129122005 53 201 2.0 7.0 0.00 0.07 0.06 94 1022.5
20211129121505 53 129 5.0 6.0 0.00 0.07 0.06 93 1022.3
20211129121006 53 136 1.0 5.0 0.01 0.07 0.06 94 1022.8
20211129120504 53 154 2.0 3.0 0.01 0.07 0.06 94 1022.6
20211129120006 53 189 2.0 6.0 0.01 0.07 0.06 94 1022.9
20211129115505 53 196 5.0 8.0 0.01 0.07 0.06 94 1022.8
20211129115005 53 197 5.0 8.0 0.01 0.07 0.06 93 1022.8
20211129114505 53 194 3.0 6.0 0.01 0.07 0.06 93 1022.9
20211129114005 53 203 4.0 7.0 0.02 0.07 0.06 93 1023.0
20211129113505 53 198 3.0 6.0 0.03 0.07 0.06 93 1023.1
20211129113006 53 202 3.0 5.0 0.05 0.07 0.06 93 1023.1
20211129112505 53 178 3.0 7.0 0.05 0.07 0.06 93 1023.1
20211129112006 53 180 3.0 9.0 0.05 0.07 0.06 93 1023.1
20211129111505 53 186 6.0 9.0 0.05 0.07 0.06 93 1023.4
20211129111006 53 200 5.0 8.0 0.04 0.06 0.05 93 1023.3
20211129110504 53 191 3.0 6.0 0.04 0.06 0.05 93 1023.3
20211129110005 53 192 2.0 3.0 0.04 0.06 0.05 93 1023.4
20211129105505 53 179 1.0 3.0 0.04 0.06 0.05 93 1023.5
20211129105006 53 202 1.0 5.0 0.04 0.06 0.05 93 1023.5
20211129104505 53 151 2.0 7.0 0.04 0.06 0.05 93 1023.4
20211129104006 53 194 2.0 7.0 0.03 0.05 0.04 93 1023.6
20211129103505 53 189 3.0 6.0 0.02 0.04 0.03 93 1023.4
20211129103005 53 199 4.0 6.0 0.00 0.02 0.01 93 1023.5
20211129102504 53 198 3.0 6.0 0.00 0.02 0.01 93 1023.6
20211129102006 53 209 5.0 7.0 0.00 0.02 0.01 93 1023.4
20211129101505 53 200 4.0 7.0 0.00 0.02 0.01 93 1023.3
20211129101006 53 207 4.0 7.0 0.00 0.02 0.01 93 1023.2
20211129100504 53 208 5.0 9.0 0.00 0.02 0.01 93 1023.3
20211129100005 53 207 5.0 10.0 0.00 0.02 0.01 93 1023.2
20211129095505 53 202 5.0 7.0 0.00 0.02 0.01 93 1023.2
20211129095006 53 204 4.0 8.0 0.00 0.02 0.01 93 1023.1
20211129094504 53 203 5.0 9.0 0.00 0.02 0.01 93 1023.1
20211129094006 53 205 5.0 8.0 0.01 0.02 0.01 93 1023.0
20211129093504 53 208 6.0 10.0 0.01 0.02 0.01 93 1022.9
20211129093005 54 209 6.0 8.0 0.01 0.02 0.01 93 1022.9
20211129092505 54 204 5.0 8.0 0.01 0.02 0.01 93 1022.8
20211129092005 54 198 5.0 9.0 0.01 0.02 0.01 93 1022.9
20211129091505 54 196 5.0 9.0 0.01 0.02 0.01 93 1022.9
20211129091006 54 206 4.0 7.0 0.01 0.02 0.01 93 1023.0
20211129090505 54 213 3.0 5.0 0.01 0.02 0.01 93 1023.1
20211129090005 54 198 3.0 3.0 0.01 0.02 0.01 93 1023.1
20211129085504 54 208 4.0 6.0 0.00 0.02 0.01 93 1023.0
20211129085006 54 208 3.0 3.0 0.00 0.02 0.01 93 1023.0
20211129084504 54 206 2.0 3.0 0.00 0.02 0.01 93 1023.1
20211129084006 54 196 4.0 7.0 0.00 0.01 0.00 93 1023.2
20211129083505 54 201 3.0 8.0 0.00 0.01 0.00 93 1023.1
20211129083005 54 206 6.0 9.0 0.00 0.01 0.00 93 1023.1
20211129082505 54 194 5.0 8.0 0.00 0.01 0.00 93 1023.2
20211129082005 54 208 4.0 7.0 0.00 0.01 0.00 93 1023.1
20211129081505 54 206 3.0 6.0 0.00 0.01 0.00 93 1023.0
20211129081005 54 204 4.0 6.0 0.00 0.01 0.00 93 1023.0
20211129080504 54 206 3.0 6.0 0.00 0.01 0.00 93 1023.0
20211129080005 54 198 3.0 5.0 0.00 0.01 0.00 93 1023.1
20211129075505 54 214 3.0 6.0 0.01 0.01 0.01 93 1023.2
20211129075006 54 211 3.0 6.0 0.01 0.01 0.01 93 1023.2
20211129074505 54 206 3.0 6.0 0.01 0.01 0.01 93 1023.1
20211129074005 54 203 4.0 6.0 0.01 0.01 0.01 93 1023.0
20211129073504 54 204 3.0 5.0 0.00 0.00 0.00 93 1023.1
20211129073005 54 204 4.0 8.0 0.00 0.00 0.00 93 1023.3
20211129072505 54 200 2.0 3.0 0.00 0.00 0.00 93 1023.3
20211129072006 54 213 2.0 5.0 0.00 0.00 0.00 93 1023.3
20211129071504 54 220 2.0 3.0 0.00 0.00 0.00 93 1023.3
20211129071006 54 213 2.0 3.0 0.00 0.00 0.00 92 1023.3
20211129070506 54 206 2.0 3.0 0.00 0.00 0.00 92 1023.3
20211129070005 54 226 2.0 3.0 0.00 0.00 0.00 92 1023.2
20211129065505 54 229 2.0 3.0 0.00 0.00 0.00 92 1023.2
20211129065006 54 222 2.0 3.0 0.00 0.00 0.00 92 1023.1
20211129064505 54 222 2.0 3.0 0.00 0.00 0.00 92 1023.1
20211129064005 55 215 2.0 3.0 0.00 0.00 0.00 92 1023.0
20211129063505 55 207 1.0 3.0 0.00 0.00 0.00 91 1022.9
20211129063005 55 200 1.0 2.0 0.00 0.00 0.00 91 1023.0
20211129062505 55 200 1.0 3.0 0.00 0.00 0.00 91 1023.0
20211129062005 55 192 2.0 3.0 0.00 0.00 0.00 91 1023.0
20211129061505 55 219 2.0 2.0 0.00 0.00 0.00 91 1023.0
20211129061006 55 219 1.0 2.0 0.00 0.00 0.00 91 1023.1
20211129060505 55 219 1.0 2.0 0.00 0.00 0.00 91 1023.1
20211129060005 55 193 1.0 3.0 0.00 0.00 0.00 91 1023.0